COSMOS 2526 (43432 NORAD) Tracking and Keplerian Element Data

This shows tracking and keplerian element data for the satellite.

Feedback or suggestion? Click here.




ElementValue
Catalog43432
NameCOSMOS 2526
Epoch Orbit402
Epoch Day136.88977052
Epoch Year2019
RAAN95
Inclination0.0365
Eccentricity0.0001741
Argument of Perigee358.3366
Mean Anonmoly229.3326
Mean Motion1.0026965
Decay Rate-3.58E-06
L11 43432U 18037A 19136.88977052 -.00000358 00000-0 00000-0 0 9998
L22 43432 0.0365 95.0000 0001741 358.3366 229.3326 1.00269650 4025

Live tracking and technical data element details for COSMOS 2526 (NORAD 43432). COSMOS 2526 can be tracked NOW for your location showing map with azimuth and elevation plus other details from your city location.

Track the satellite on the map from your city or location and see movement details for azimuth, elevation, latitude, longitude, range, height, and movement on the map or in text.







IsCatalogInMostPopularTable: catalog: 43432, numindb: 164
Update: records affected: 1



GetName: 43432 COSMOS 2526

Hit Count: updated at: Tue, 21 May 2019 20:54:55 GMT